Regional Weather Roundup
Issued by NWS Midland/Odessa, TX

Skip options and go directly to product.
Home | Oldest Version | Previous Version | Current Version | All | Graphics & Text | Save Text | Print | Product List | Glossary On

Skip product version selection by date and time.   
131
ASUS44 KMAF 201310
RWRMAF
MIDLAND AREA WEATHER ROUNDUP
NATIONAL WEATHER SERVICE MIDLAND TX
800 AM CDT SUN APR 20 2014

...IN SOUTHWEST TEXAS AND SOUTHEAST NEW MEXICO...

CITY           SKY/WX    TMP DP  RH WIND       PRES   REMARKS
ALPINE         CLEAR     53  51  93 SW8       30.19R
ANDREWS        CLOUDY    57  55  92 W3        30.10R
ARTESIA        PTCLDY    48  46  93 SE3       30.09S
BIG SPRING     CLOUDY    61  58  88 CALM      30.12R
CARLSBAD       PTCLDY    54  52  93 N6        30.08R
DRYDEN           N/A     67  62  84 SE12      30.07R
FORT STOCKTON  CLOUDY    60  57  89 S6        30.09R
GUAD PASS      FOG       50  49  96 SW8       30.18R VSB 1
HOBBS          CLOUDY    54  54 100 SW7       30.12R FOG
MARFA            N/A     43  41  93 CALM      30.18R VSB 1/2
MIDLAND AIRPK  MOCLDY    60  56  87 S3        30.10R
MIDLAND INTL   CLOUDY    60  56  86 SW8       30.09R
ODESSA         CLOUDY    59  56  89 S6        30.09S
PECOS          FOG       55  54  97 CALM      30.09R VSB 1/4
PRESIDIO       FAIR      60  51  73 N3        30.09R
SEMINOLE       CLOUDY    54  54  99 CALM      30.11R FOG
SNYDER         CLOUDY    58  56  94 CALM      30.11R
WINK           MOCLDY    59  58  96 CALM      30.08R
$$
...OTHER STATIONS IN TEXAS...

CITY           SKY/WX    TMP DP  RH WIND       PRES   REMARKS
ABILENE        CLOUDY    63  54  72 CALM      30.09R
AMARILLO       CLEAR     50  48  93 SE15      30.08R
AUSTIN         CLOUDY    63  61  93 SE7       30.13R FOG
BROWNSVILLE    PTSUNNY   70  68  93 SE9       30.08R
CORPUS CHRISTI PTSUNNY   70  65  84 SE15      30.10R
DALLAS FTW     CLOUDY    65  55  70 S12       30.12R
DEL RIO        CLOUDY    65  63  93 E8        30.07R
EL PASO        PTCLDY    51  49  92 N3        30.12R
HOUSTON INT    PTSUNNY   63  62  97 N3        30.16R FOG
LUBBOCK        CLOUDY    55  54  96 S5        30.09R FOG
SAN ANGELO     SUNNY     62  57  83 S14       30.03R
SAN ANTONIO    DRIZZLE   66  62  87 SE9       30.13R FOG
WACO           PTSUNNY   59  56  89 SE6       30.13S
WICHITA FALLS  NOT AVBL
$$
...OTHER LOCATIONS IN NEW MEXICO...

CITY           SKY/WX    TMP DP  RH WIND       PRES   REMARKS
ALAMAGORDO     PTCLDY    43  41  93 E7        30.14R WCI  39
ALBUQUERQUE    MOCLDY    46  43  89 SE6       30.14R
CANNON AFB     PTCLDY    50  44  79 SW7       30.08R
CLOVIS         MOCLDY    52  48  87 SW10      30.10R
HOLLOMAN AFB   PTCLDY    46  46  99 S6        30.12R
ROSWELL        PTCLDY    47  44  90 E8        30.07R
RUIDOSO        LGT RAIN  45  39  81 NW9       30.20R WCI  40
SANTA FE       MOCLDY    43  41  93 SW5       30.13R
TRUTH OR CONSE CLOUDY    51  47  86 S6        30.13R
TUCUMCARI      PTCLDY    51  45  79 SW12      30.03R
$$

USA.gov is the U.S. government's official web portal to all federal, state and local government web resources and services.